IRNSS-1B

Last updated on Jan. 23, 2021, 7:14 a.m. UTC

1 39635U 14017A   21021.88193740  .00000117  00000-0  00000-0 0  9994
2 39635  28.9580 273.6006 0018256 178.5910  41.8533  1.00270401 25014
UTC
Height (km)
Latitude
Longitude
Inclination
Orbital Period
UTC large
Height (km)
Speed (km/s)
/
Latitude / Longitude
Inclination (degrees)
Orbital Period (minutes)
Azimuth
Elevation
Range (km)
Doppler Factor
iOS Compass Heading
iOS Angle

Next 30 passes for location: Hong Kong

Rise time Rise Azimuth (degrees) Set time Set Azimuth (degrees) Duration Max altitude (degrees)

No matching passes for this satellites